Track COSMOS 2483 now! 10-day predictions COSMOS 2483 is classified as:
1 39058U 13001B 24326.09448239 .00000050 00000-0 28700-3 0 9991 2 39058 82.5019 212.0744 0016126 183.1042 176.9941 12.44004132538034